This is the latest recevied weather packets stored in our database for station/object DL5ARK. If no packets are shown the sender has not sent any weather packets the latest 10 day(s).
| Time | Temp. | Humidity | Pressure | Rain* | Wind** | Luminosity | Snow |
|---|---|---|---|---|---|---|---|
| 1777361808 | 15.56° C | 51% | 1008.2 hPa | 0 mm | - | - | - |
| 1777361630 | 15° C | 51% | 1008.2 hPa | 0 mm | - | - | - |
| 1777361448 | 15° C | 52% | 1008.2 hPa | 0 mm | - | - | - |
| 1777361267 | 14.44° C | 49% | 1008.2 hPa | 0 mm | - | - | - |
| 1777361088 | 14.44° C | 52% | 1008.2 hPa | 0 mm | - | - | - |
| 1777360908 | 13.89° C | 53% | 1008.2 hPa | 0 mm | - | - | - |
| 1777360730 | 13.89° C | 52% | 1008.2 hPa | 0 mm | - | - | - |
| 1777360548 | 13.89° C | 51% | 1008.2 hPa | 0 mm | - | - | - |
| 1777360367 | 13.89° C | 50% | 1008.2 hPa | 0 mm | - | - | - |
| 1777360188 | 13.33° C | 51% | 1008.2 hPa | 0 mm | - | - | - |
| 1777360007 | 13.33° C | 54% | 1008.2 hPa | 0 mm | - | - | - |
| 1777359650 | 12.78° C | 52% | 1008.2 hPa | 0 mm | - | - | - |
| 1777359468 | 13.33° C | 52% | 1008.2 hPa | 0 mm | - | - | - |
| 1777358927 | 12.22° C | 52% | 1008.2 hPa | 0 mm | - | - | - |
| 1777358747 | 12.22° C | 51% | 1008.2 hPa | 0 mm | - | - | - |
| 1777358207 | 12.78° C | 53% | 1008.2 hPa | 0 mm | - | - | - |
| 1777358028 | 12.78° C | 53% | 1008.2 hPa | 0 mm | - | - | - |
| 1777357847 | 12.22° C | 52% | 1008.2 hPa | 0 mm | - | - | - |
| 1777357667 | 11.67° C | 53% | 1008.2 hPa | 0 mm | - | - | - |
| 1777357488 | 11.67° C | 53% | 1008.2 hPa | 0 mm | - | - | - |
| 1777357128 | 11.67° C | 53% | 1008.2 hPa | 0 mm | - | - | - |
| 1777356947 | 11.67° C | 53% | 1008.2 hPa | 0 mm | - | - | - |
| 1777356768 | 11.67° C | 53% | 1008.2 hPa | 0 mm | - | - | - |
| 1777356588 | 11.67° C | 53% | 1008.2 hPa | 0 mm | - | - | - |
| 1777356408 | 11.67° C | 53% | 1008.2 hPa | 0 mm | - | - | - |
* Rain latest hour (hover to see other rain measurements)
** Current wind speed in m/s (hover to see current wind gust speed)